COSMOS 970 DEB, 65013

Orbit data source: Space-Track

COSMOS 970 DEB, 65013 is space debris in LEO originally from a launch on Wed, 21 Dec 1977 UTC launched from the Tyuratam Missile And Space Complex (TTMTR). Debris objects in space refer to the collection of defunct objects orbiting the Earth. Examples of debris include non-operational satellites, rocket bodies, and fragments generated from explosions, collisions, or faulty payload assembly.

Loading next visibility...
Identifier
65013, 1977-121EA
Orbit
LEO
Country
Flag of CISCIS
Related business
Manufacturer
Unknown
Mission
Spacecraft
Bus & Motor
Unknown
Mass
Unknown
Launch date (UTC)
1977-12-21 (48 years ago)
Launch vehicle
Unknown
Launch site
Tyuratam Missile And Space Complex (TTMTR)
Object type
Payload
Rocket body
Debris
Shape & HBR
Unknown shape, 0.1 m
Radar Cross Section
Small (<0.1 m²)

Expand to show TLE details & history
Last TLE update: 4 days ago

TLE from 4 days ago
0 COSMOS 970 DEB
1 65013U 77121EA  26168.22830868  .00000044  00000-0  15846-3 0  9998
2 65013  65.9192 155.9900 0097871  10.9468 349.3685 13.59129343133159
Epoch: 2026-06-17T05:28Z
TLE epoch observation values (Epoch: 2026-06-17T05:28:45.869Z)
Latitude
-0.00005°
Longitude
168.30985°
Altitude
969.508 km
Speed
7.403 km/s
True Right ascension
10h 23m 57s
True Declination
0° 00' 00"
Sunlit
Object was in daylight at epoch
Visualization orbit readout
Latitude
Unknown
Longitude
Unknown
Altitude
Unknown
Speed
Unknown
Apparent Right ascension
Unknown
Apparent Declination
Unknown
Sunlit
N/A
Visualization observer readout
Local Sidereal Time
08:32:42
Azimuth
Unknown
Elevation
Unknown
Doppler factor
Unknown
Orbital elements
Apogee altitude
1,109.953 km
Perigee altitude
964.8 km
Semi-major axis
7,415.513 km
Eccentricity
0.00979
Inclination
65.9192°
RAAN
155.99°
Arg. of periapsis
10.9468°
True anomaly
349.15907°
Mean anomaly
349.3685°
Eccentric anomaly
349.26404°
Mean motion
3.39884 °/min
Orbital period
105.92 mins
BSTAR
0.00015846
Loading maneuver chart data...
Computing Atmospheric mass density...
Loading historical data...
Loading historical data...
Loading historical data...
Loading historical data...
Loading historical data...
Loading historical data...
Loading historical data...

Documentation

Showing up to 5 results
|